| time (UTC) | temp F | wind direction | speed MPH | gust MPH | rain 1hr in | rain 24hr in | rain mn in | humidity % | barometer mb |
| 20260509201610 | 62 | 117 | 2.0 | 4.0 | 0.00 | 0.01 | 0.01 | 65 | 1009.6 |
| 20260509201108 | 62 | 117 | 2.0 | 4.0 | 0.00 | 0.01 | 0.01 | 67 | 1009.6 |
| 20260509200609 | 62 | 117 | 2.0 | 4.0 | 0.00 | 0.01 | 0.01 | 66 | 1009.7 |
| 20260509200108 | 62 | 118 | 2.0 | 4.0 | 0.00 | 0.01 | 0.01 | 65 | 1009.8 |
| 20260509195608 | 62 | 118 | 1.0 | 4.0 | 0.00 | 0.01 | 0.01 | 66 | 1009.8 |
| 20260509195106 | 62 | 114 | 1.0 | 4.0 | 0.00 | 0.01 | 0.01 | 68 | 1009.7 |
| 20260509194602 | 62 | 113 | 1.0 | 6.0 | 0.00 | 0.01 | 0.01 | 66 | 1009.8 |
| 20260509194059 | 62 | 111 | 3.0 | 6.0 | 0.00 | 0.01 | 0.01 | 65 | 1009.7 |
| 20260509193556 | 62 | 109 | 4.0 | 8.0 | 0.00 | 0.01 | 0.01 | 67 | 1009.8 |
| 20260509193050 | 62 | 143 | 5.0 | 8.0 | 0.00 | 0.01 | 0.01 | 66 | 1009.7 |
| 20260509192549 | 63 | 112 | 4.0 | 8.0 | 0.00 | 0.01 | 0.01 | 66 | 1009.8 |
| 20260509192052 | 63 | 150 | 4.0 | 8.0 | 0.00 | 0.01 | 0.01 | 65 | 1009.7 |
| 20260509191548 | 63 | 147 | 4.0 | 8.0 | 0.00 | 0.01 | 0.01 | 65 | 1009.8 |
| 20260509191045 | 63 | 172 | 5.0 | 11.0 | 0.00 | 0.01 | 0.01 | 65 | 1009.6 |
| 20260509190546 | 63 | 155 | 5.0 | 11.0 | 0.00 | 0.01 | 0.01 | 65 | 1009.7 |
| 20260509190045 | 63 | 147 | 4.0 | 11.0 | 0.00 | 0.01 | 0.01 | 67 | 1009.8 |
| 20260509185546 | 63 | 172 | 4.0 | 13.0 | 0.00 | 0.01 | 0.01 | 66 | 1009.7 |
| 20260509185045 | 63 | 151 | 5.0 | 13.0 | 0.00 | 0.01 | 0.01 | 67 | 1009.8 |
| 20260509184550 | 63 | 78 | 4.0 | 12.0 | 0.00 | 0.01 | 0.01 | 63 | 1009.8 |
| 20260509184049 | 64 | 176 | 5.0 | 11.0 | 0.00 | 0.01 | 0.01 | 68 | 1009.9 |
| 20260509183547 | 64 | 146 | 5.0 | 12.0 | 0.00 | 0.01 | 0.01 | 63 | 1009.8 |
| 20260509183045 | 64 | 180 | 4.0 | 12.0 | 0.00 | 0.01 | 0.01 | 68 | 1009.9 |
| 20260509182550 | 64 | 160 | 4.0 | 12.0 | 0.00 | 0.01 | 0.01 | 63 | 1010.1 |
| 20260509182042 | 63 | 151 | 5.0 | 12.0 | 0.00 | 0.01 | 0.01 | 69 | 1010.0 |
| 20260509181540 | 62 | 159 | 4.0 | 12.0 | 0.00 | 0.01 | 0.01 | 69 | 1010.0 |
| 20260509181040 | 62 | 141 | 3.0 | 9.0 | 0.00 | 0.01 | 0.01 | 72 | 1010.1 |
| 20260509180537 | 61 | 159 | 4.0 | 9.0 | 0.00 | 0.01 | 0.01 | 72 | 1010.4 |
| 20260509180038 | 61 | 175 | 3.0 | 8.0 | 0.00 | 0.01 | 0.01 | 70 | 1010.5 |
| 20260509175535 | 61 | 161 | 4.0 | 9.0 | 0.00 | 0.01 | 0.01 | 73 | 1010.6 |
| 20260509175035 | 62 | 129 | 4.0 | 9.0 | 0.00 | 0.01 | 0.01 | 73 | 1010.8 |
| 20260509174534 | 62 | 188 | 3.0 | 9.0 | 0.00 | 0.01 | 0.01 | 74 | 1011.0 |
| 20260509174038 | 61 | 165 | 3.0 | 9.0 | 0.00 | 0.01 | 0.01 | 76 | 1011.2 |
| 20260509173532 | 61 | 186 | 2.0 | 7.0 | 0.00 | 0.01 | 0.01 | 71 | 1011.1 |
| 20260509173031 | 60 | 155 | 2.0 | 8.0 | 0.00 | 0.01 | 0.01 | 76 | 1011.3 |
| 20260509172532 | 60 | 163 | 2.0 | 8.0 | 0.00 | 0.01 | 0.01 | 73 | 1011.3 |
| 20260509172031 | 60 | 170 | 1.0 | 5.0 | 0.00 | 0.01 | 0.01 | 79 | 1011.2 |
| 20260509171530 | 59 | 180 | 0.0 | 5.0 | 0.00 | 0.01 | 0.01 | 77 | 1011.4 |
| 20260509171029 | 58 | 270 | 0.0 | 1.0 | 0.00 | 0.01 | 0.01 | 76 | 1011.5 |
| 20260509170029 | 58 | 270 | 2.0 | 4.0 | 0.00 | 0.01 | 0.01 | 76 | 1011.4 |
| 20260509165529 | 58 | 333 | 1.0 | 4.0 | 0.00 | 0.01 | 0.01 | 77 | 1011.5 |
| 20260509165030 | 58 | 336 | 0.0 | 3.0 | 0.00 | 0.01 | 0.01 | 77 | 1011.5 |
| 20260509164531 | 58 | 334 | 1.0 | 3.0 | 0.00 | 0.01 | 0.01 | 76 | 1011.2 |
| 20260509164029 | 58 | 48 | 2.0 | 4.0 | 0.00 | 0.01 | 0.01 | 77 | 1011.0 |
| 20260509163529 | 58 | 20 | 2.0 | 4.0 | 0.00 | 0.01 | 0.01 | 77 | 1011.0 |
| 20260509163029 | 58 | 15 | 2.0 | 5.0 | 0.00 | 0.01 | 0.01 | 76 | 1011.0 |
| 20260509162529 | 58 | 10 | 1.0 | 5.0 | 0.00 | 0.01 | 0.01 | 76 | 1011.2 |
| 20260509162037 | 57 | 246 | 1.0 | 3.0 | 0.00 | 0.01 | 0.01 | 78 | 1011.4 |
| 20260509161532 | 57 | 244 | 2.0 | 4.0 | 0.00 | 0.01 | 0.01 | 79 | 1011.5 |
| 20260509161029 | 57 | 98 | 2.0 | 6.0 | 0.00 | 0.01 | 0.01 | 78 | 1011.5 |
| 20260509160530 | 57 | 101 | 3.0 | 6.0 | 0.00 | 0.01 | 0.01 | 78 | 1011.5 |
| 20260509160030 | 57 | 104 | 3.0 | 6.0 | 0.00 | 0.01 | 0.01 | 79 | 1011.5 |
| 20260509155529 | 58 | 105 | 2.0 | 6.0 | 0.00 | 0.01 | 0.01 | 78 | 1011.5 |
| 20260509155029 | 57 | 276 | 1.0 | 3.0 | 0.00 | 0.01 | 0.01 | 77 | 1011.7 |
| 20260509154533 | 57 | 280 | 1.0 | 3.0 | 0.00 | 0.01 | 0.01 | 76 | 1011.7 |
| 20260509154028 | 58 | 279 | 1.0 | 3.0 | 0.00 | 0.01 | 0.01 | 78 | 1011.7 |
| 20260509153527 | 57 | 279 | 1.0 | 3.0 | 0.00 | 0.01 | 0.01 | 77 | 1011.5 |
| 20260509153027 | 57 | 278 | 1.0 | 3.0 | 0.00 | 0.01 | 0.01 | 78 | 1011.5 |
| 20260509152525 | 57 | 279 | 2.0 | 6.0 | 0.00 | 0.01 | 0.01 | 77 | 1011.7 |
| 20260509152025 | 57 | 276 | 2.0 | 6.0 | 0.00 | 0.01 | 0.01 | 78 | 1011.5 |
| 20260509151528 | 57 | 271 | 2.0 | 6.0 | 0.00 | 0.01 | 0.01 | 77 | 1011.8 |
| 20260509151021 | 57 | 274 | 1.0 | 6.0 | 0.00 | 0.01 | 0.01 | 79 | 1011.6 |
| 20260509150517 | 56 | 226 | 1.0 | 4.0 | 0.00 | 0.01 | 0.01 | 80 | 1011.8 |
| 20260509150008 | 56 | 205 | 2.0 | 6.0 | 0.00 | 0.01 | 0.01 | 80 | 1011.8 |
| 20260509145515 | 56 | 135 | 3.0 | 8.0 | 0.00 | 0.01 | 0.01 | 84 | 1011.9 |
| 20260509145007 | 55 | 104 | 4.0 | 8.0 | 0.00 | 0.01 | 0.01 | 83 | 1011.8 |
| 20260509144507 | 55 | 99 | 6.0 | 8.0 | 0.00 | 0.01 | 0.01 | 84 | 1011.8 |
| 20260509144009 | 54 | 93 | 4.0 | 8.0 | 0.00 | 0.01 | 0.01 | 87 | 1011.7 |
| 20260509143506 | 54 | 87 | 2.0 | 5.0 | 0.00 | 0.01 | 0.01 | 87 | 1011.7 |
| 20260509143009 | 54 | 39 | 2.0 | 5.0 | 0.00 | 0.01 | 0.01 | 86 | 1011.5 |
| 20260509142511 | 54 | 343 | 1.0 | 5.0 | 0.00 | 0.01 | 0.01 | 86 | 1011.5 |
| 20260509142010 | 53 | 351 | 2.0 | 5.0 | 0.00 | 0.01 | 0.01 | 85 | 1011.4 |
| 20260509141509 | 53 | 356 | 2.0 | 6.0 | 0.00 | 0.01 | 0.01 | 84 | 1011.3 |
| 20260509141007 | 53 | 343 | 2.0 | 6.0 | 0.00 | 0.01 | 0.01 | 84 | 1011.3 |
| 20260509140507 | 53 | 340 | 2.0 | 7.0 | 0.01 | 0.01 | 0.01 | 86 | 1011.3 |
| 20260509140011 | 53 | 93 | 3.0 | 8.0 | 0.01 | 0.01 | 0.01 | 86 | 1011.5 |
| 20260509135506 | 53 | 84 | 2.0 | 8.0 | 0.01 | 0.01 | 0.01 | 84 | 1011.7 |
| 20260509135007 | 53 | 343 | 2.0 | 5.0 | 0.01 | 0.01 | 0.01 | 84 | 1011.6 |
| 20260509134503 | 53 | 171 | 1.0 | 5.0 | 0.01 | 0.01 | 0.01 | 84 | 1011.7 |
| 20260509133958 | 53 | 167 | 2.0 | 5.0 | 0.01 | 0.01 | 0.01 | 84 | 1011.8 |
| 20260509133501 | 53 | 166 | 2.0 | 5.0 | 0.01 | 0.01 | 0.01 | 83 | 1011.5 |
| 20260509132957 | 53 | 116 | 3.0 | 8.0 | 0.01 | 0.01 | 0.01 | 83 | 1011.7 |
| 20260509132459 | 53 | 10 | 2.0 | 8.0 | 0.01 | 0.01 | 0.01 | 81 | 1011.5 |
| 20260509131954 | 53 | 79 | 3.0 | 7.0 | 0.01 | 0.01 | 0.01 | 81 | 1011.8 |
| 20260509131456 | 54 | 95 | 3.0 | 8.0 | 0.01 | 0.01 | 0.01 | 81 | 1011.6 |
| 20260509130952 | 54 | 77 | 2.0 | 8.0 | 0.01 | 0.01 | 0.01 | 79 | 1011.4 |
| 20260509130454 | 54 | 296 | 2.0 | 8.0 | 0.00 | 0.00 | 0.00 | 77 | 1011.2 |
| 20260509125955 | 55 | 20 | 2.0 | 4.0 | 0.00 | 0.00 | 0.00 | 75 | 1011.3 |
| 20260509125452 | 55 | 348 | 2.0 | 5.0 | 0.00 | 0.00 | 0.00 | 73 | 1011.4 |
| 20260509124956 | 55 | 44 | 2.0 | 5.0 | 0.00 | 0.00 | 0.00 | 73 | 1011.4 |
| 20260509124452 | 55 | 20 | 3.0 | 7.0 | 0.00 | 0.00 | 0.00 | 73 | 1011.4 |
| 20260509123950 | 55 | 150 | 3.0 | 7.0 | 0.00 | 0.00 | 0.00 | 74 | 1011.4 |
| 20260509123455 | 56 | 145 | 3.0 | 8.0 | 0.00 | 0.00 | 0.00 | 72 | 1011.4 |
| 20260509122950 | 56 | 282 | 2.0 | 8.0 | 0.00 | 0.00 | 0.00 | 69 | 1011.4 |
| 20260509122443 | 56 | 261 | 3.0 | 11.0 | 0.00 | 0.00 | 0.00 | 69 | 1011.4 |
| 20260509121944 | 56 | 229 | 4.0 | 11.0 | 0.00 | 0.00 | 0.00 | 67 | 1011.3 |
| 20260509121444 | 56 | 247 | 4.0 | 10.0 | 0.00 | 0.00 | 0.00 | 67 | 1011.2 |
| 20260509120943 | 56 | 274 | 5.0 | 12.0 | 0.00 | 0.00 | 0.00 | 67 | 1011.3 |
| 20260509120443 | 56 | 272 | 6.0 | 12.0 | 0.00 | 0.00 | 0.00 | 67 | 1011.2 |
| 20260509115943 | 56 | 257 | 7.0 | 14.0 | 0.00 | 0.00 | 0.00 | 69 | 1011.2 |
| 20260509115445 | 55 | 257 | 7.0 | 14.0 | 0.00 | 0.00 | 0.00 | 70 | 1011.2 |
| 20260509114945 | 55 | 261 | 6.0 | 12.0 | 0.00 | 0.00 | 0.00 | 71 | 1011.1 |
| 20260509114447 | 54 | 285 | 6.0 | 12.0 | 0.00 | 0.00 | 0.00 | 73 | 1011.1 |
| 20260509113943 | 54 | 293 | 6.0 | 11.0 | 0.00 | 0.00 | 0.00 | 73 | 1011.0 |
| 20260509113443 | 53 | 277 | 4.0 | 11.0 | 0.00 | 0.00 | 0.00 | 74 | 1011.1 |
| 20260509112943 | 53 | 271 | 3.0 | 9.0 | 0.00 | 0.00 | 0.00 | 75 | 1011.2 |
| 20260509112444 | 53 | 278 | 3.0 | 13.0 | 0.00 | 0.00 | 0.00 | 75 | 1011.4 |
| 20260509111937 | 53 | 253 | 2.0 | 13.0 | 0.00 | 0.00 | 0.00 | 74 | 1011.4 |
| 20260509111437 | 52 | 278 | 1.0 | 6.0 | 0.00 | 0.00 | 0.00 | 75 | 1011.4 |
| 20260509110940 | 52 | 271 | 1.0 | 5.0 | 0.00 | 0.00 | 0.00 | 73 | 1011.4 |
| 20260509110439 | 52 | 340 | 0.0 | 3.0 | 0.00 | 0.00 | 0.00 | 74 | 1011.5 |
| 20260509105937 | 52 | 336 | 0.0 | 2.0 | 0.00 | 0.00 | 0.00 | 75 | 1011.5 |
| 20260509105437 | 51 | 338 | 0.0 | 2.0 | 0.00 | 0.00 | 0.00 | 75 | 1011.5 |
| 20260509104934 | 51 | 338 | 0.0 | 2.0 | 0.00 | 0.00 | 0.00 | 74 | 1011.3 |
| 20260509104434 | 51 | 338 | 1.0 | 3.0 | 0.00 | 0.00 | 0.00 | 74 | 1011.2 |
| 20260509103942 | 51 | 338 | 1.0 | 3.0 | 0.00 | 0.00 | 0.00 | 74 | 1011.2 |
| 20260509103434 | 51 | 338 | 1.0 | 8.0 | 0.00 | 0.00 | 0.00 | 76 | 1011.1 |
| 20260509102936 | 51 | 340 | 3.0 | 8.0 | 0.00 | 0.00 | 0.00 | 74 | 1011.0 |
| 20260509102436 | 50 | 247 | 4.0 | 8.0 | 0.00 | 0.00 | 0.00 | 76 | 1011.0 |
| 20260509101935 | 51 | 118 | 5.0 | 8.0 | 0.00 | 0.00 | 0.00 | 78 | 1010.7 |
| 20260509101434 | 51 | 141 | 3.0 | 6.0 | 0.00 | 0.00 | 0.00 | 77 | 1010.9 |
| 20260509100936 | 51 | 173 | 1.0 | 6.0 | 0.00 | 0.00 | 0.00 | 73 | 1010.9 |
| 20260509100433 | 51 | 188 | 0.0 | 2.0 | 0.00 | 0.00 | 0.00 | 73 | 1010.9 |
| 20260509095935 | 51 | 188 | 0.0 | 1.0 | 0.00 | 0.00 | 0.00 | 71 | 1011.0 |
| 20260509095435 | 51 | 188 | 0.0 | 1.0 | 0.00 | 0.00 | 0.00 | 72 | 1010.9 |
| 20260509094937 | 51 | 188 | 0.0 | 1.0 | 0.00 | 0.00 | 0.00 | 73 | 1010.9 |
| 20260509094434 | 52 | 188 | 0.0 | 1.0 | 0.00 | 0.00 | 0.00 | 72 | 1010.9 |
| 20260509093934 | 52 | 188 | 0.0 | 2.0 | 0.00 | 0.00 | 0.00 | 72 | 1010.9 |
| 20260509093437 | 52 | 188 | 0.0 | 2.0 | 0.00 | 0.00 | 0.00 | 71 | 1011.0 |
| 20260509092933 | 52 | 188 | 1.0 | 5.0 | 0.00 | 0.00 | 0.00 | 71 | 1011.0 |
| 20260509092435 | 52 | 187 | 2.0 | 10.0 | 0.00 | 0.00 | 0.00 | 71 | 1010.9 |
| 20260509091931 | 52 | 185 | 3.0 | 10.0 | 0.00 | 0.00 | 0.00 | 70 | 1011.0 |
| 20260509091433 | 52 | 175 | 3.0 | 7.0 | 0.00 | 0.00 | 0.00 | 71 | 1010.9 |
| 20260509090931 | 52 | 142 | 2.0 | 5.0 | 0.00 | 0.00 | 0.00 | 71 | 1011.0 |
| 20260509090429 | 51 | 184 | 1.0 | 5.0 | 0.00 | 0.00 | 0.00 | 71 | 1011.0 |
| 20260509085930 | 51 | 185 | 1.0 | 4.0 | 0.00 | 0.00 | 0.00 | 71 | 1011.0 |
| 20260509085429 | 52 | 185 | 2.0 | 5.0 | 0.00 | 0.00 | 0.00 | 71 | 1011.0 |
| 20260509084929 | 52 | 165 | 1.0 | 5.0 | 0.00 | 0.00 | 0.00 | 71 | 1011.0 |
| 20260509084430 | 52 | 157 | 0.0 | 7.0 | 0.00 | 0.00 | 0.00 | 71 | 1010.9 |
| 20260509083929 | 52 | 157 | 1.0 | 7.0 | 0.00 | 0.00 | 0.00 | 70 | 1011.0 |
| 20260509083430 | 52 | 156 | 2.0 | 8.0 | 0.00 | 0.00 | 0.00 | 70 | 1011.0 |
| 20260509082929 | 52 | 156 | 4.0 | 8.0 | 0.00 | 0.00 | 0.00 | 70 | 1011.0 |
| 20260509082429 | 52 | 151 | 3.0 | 8.0 | 0.00 | 0.00 | 0.00 | 70 | 1010.9 |
| 20260509081929 | 52 | 157 | 2.0 | 8.0 | 0.00 | 0.00 | 0.00 | 71 | 1010.9 |
| 20260509081430 | 52 | 157 | 1.0 | 4.0 | 0.00 | 0.00 | 0.00 | 70 | 1011.0 |
| 20260509080929 | 52 | 157 | 1.0 | 4.0 | 0.00 | 0.00 | 0.00 | 70 | 1011.0 |
| 20260509080429 | 52 | 160 | 1.0 | 4.0 | 0.00 | 0.00 | 0.00 | 70 | 1011.1 |
| 20260509075931 | 52 | 161 | 1.0 | 4.0 | 0.00 | 0.00 | 0.00 | 71 | 1011.1 |
| 20260509075429 | 52 | 159 | 1.0 | 4.0 | 0.00 | 0.00 | 0.00 | 70 | 1010.9 |
| 20260509074930 | 53 | 159 | 0.0 | 2.0 | 0.00 | 0.00 | 0.00 | 71 | 1011.0 |
| 20260509074431 | 53 | 159 | 1.0 | 4.0 | 0.00 | 0.00 | 0.00 | 69 | 1011.0 |
| 20260509073930 | 53 | 159 | 2.0 | 5.0 | 0.00 | 0.00 | 0.00 | 68 | 1011.1 |
| 20260509073429 | 53 | 154 | 3.0 | 7.0 | 0.00 | 0.00 | 0.00 | 67 | 1011.0 |
| 20260509072929 | 53 | 155 | 3.0 | 7.0 | 0.00 | 0.00 | 0.00 | 67 | 1011.0 |
| 20260509072428 | 53 | 159 | 2.0 | 7.0 | 0.00 | 0.00 | 0.00 | 67 | 1011.1 |
| 20260509071949 | 53 | 170 | 2.0 | 5.0 | 0.00 | 0.00 | 0.00 | 67 | 1011.1 |
| 20260509071429 | 53 | 176 | 2.0 | 5.0 | 0.00 | 0.00 | 0.00 | 67 | 1011.0 |
| 20260509070929 | 53 | 164 | 2.0 | 5.0 | 0.00 | 0.00 | 0.00 | 67 | 1011.1 |
| 20260509070429 | 53 | 163 | 2.0 | 5.0 | 0.00 | 0.00 | 0.00 | 67 | 1011.1 |
| 20260509065930 | 53 | 163 | 2.0 | 5.0 | 0.00 | 0.00 | 0.00 | 68 | 1011.2 |
| 20260509064929 | 53 | 160 | 1.0 | 3.0 | 0.00 | 0.00 | 0.00 | 68 | 1011.2 |
| 20260509064430 | 53 | 160 | 1.0 | 3.0 | 0.00 | 0.00 | 0.00 | 68 | 1011.3 |
| 20260509063929 | 53 | 160 | 2.0 | 5.0 | 0.00 | 0.00 | 0.00 | 67 | 1011.3 |
| 20260509063429 | 53 | 160 | 3.0 | 5.0 | 0.00 | 0.00 | 0.00 | 67 | 1011.3 |
| 20260509062930 | 53 | 157 | 3.0 | 4.0 | 0.00 | 0.00 | 0.00 | 67 | 1011.5 |
| 20260509062431 | 53 | 158 | 2.0 | 5.0 | 0.00 | 0.00 | 0.00 | 67 | 1011.5 |
| 20260509061930 | 53 | 156 | 2.0 | 5.0 | 0.00 | 0.00 | 0.00 | 67 | 1011.5 |
| 20260509061429 | 53 | 156 | 1.0 | 3.0 | 0.00 | 0.00 | 0.00 | 66 | 1011.5 |
| 20260509060927 | 53 | 156 | 0.0 | 2.0 | 0.00 | 0.00 | 0.00 | 66 | 1011.5 |
| 20260509060427 | 54 | 153 | 0.0 | 2.0 | 0.00 | 0.00 | 0.00 | 66 | 1011.7 |
| 20260509055925 | 54 | 153 | 2.0 | 7.0 | 0.00 | 0.00 | 0.00 | 65 | 1011.6 |
| 20260509055423 | 54 | 153 | 4.0 | 8.0 | 0.00 | 0.00 | 0.00 | 65 | 1011.6 |
| 20260509054922 | 54 | 159 | 4.0 | 8.0 | 0.00 | 0.00 | 0.00 | 65 | 1011.7 |
| 20260509054422 | 53 | 159 | 3.0 | 7.0 | 0.00 | 0.00 | 0.00 | 66 | 1011.6 |
| 20260509053418 | 53 | 168 | 1.0 | 5.0 | 0.00 | 0.00 | 0.00 | 66 | 1011.7 |
| 20260509052918 | 53 | 164 | 0.0 | 3.0 | 0.00 | 0.00 | 0.00 | 65 | 1011.7 |
| 20260509052418 | 53 | 164 | 1.0 | 2.0 | 0.00 | 0.00 | 0.00 | 66 | 1011.8 |
| 20260509051911 | 54 | 164 | 1.0 | 3.0 | 0.00 | 0.00 | 0.00 | 66 | 1011.7 |
| 20260509051405 | 55 | 164 | 2.0 | 8.0 | 0.00 | 0.00 | 0.00 | 66 | 1011.7 |
| 20260509050906 | 55 | 162 | 4.0 | 8.0 | 0.00 | 0.00 | 0.00 | 62 | 1011.7 |
| 20260509050404 | 55 | 157 | 4.0 | 8.0 | 0.00 | 0.00 | 0.00 | 63 | 1011.7 |
| 20260509045903 | 55 | 150 | 4.0 | 8.0 | 0.00 | 0.00 | 0.00 | 62 | 1011.7 |
| 20260509045404 | 56 | 147 | 4.0 | 8.0 | 0.00 | 0.00 | 0.00 | 62 | 1011.8 |
| 20260509044902 | 56 | 147 | 4.0 | 7.0 | 0.00 | 0.00 | 0.00 | 62 | 1011.8 |
| 20260509044403 | 56 | 146 | 3.0 | 5.0 | 0.00 | 0.00 | 0.00 | 61 | 1012.0 |
| 20260509043902 | 56 | 154 | 3.0 | 8.0 | 0.00 | 0.00 | 0.00 | 61 | 1012.0 |
| 20260509043402 | 56 | 155 | 3.0 | 8.0 | 0.00 | 0.00 | 0.00 | 62 | 1012.0 |
| 20260509042903 | 56 | 161 | 2.0 | 4.0 | 0.00 | 0.00 | 0.00 | 61 | 1012.1 |
| 20260509042403 | 56 | 161 | 2.0 | 4.0 | 0.00 | 0.00 | 0.00 | 60 | 1012.1 |
| 20260509041902 | 55 | 161 | 3.0 | 5.0 | 0.00 | 0.00 | 0.00 | 61 | 1012.1 |
| 20260509041359 | 55 | 161 | 3.0 | 5.0 | 0.00 | 0.00 | 0.00 | 62 | 1012.1 |
| 20260509040902 | 55 | 164 | 3.0 | 6.0 | 0.00 | 0.00 | 0.00 | 63 | 1012.0 |
| 20260509040356 | 54 | 165 | 2.0 | 6.0 | 0.00 | 0.00 | 0.00 | 62 | 1012.1 |
| 20260509035854 | 53 | 174 | 1.0 | 4.0 | 0.00 | 0.00 | 0.00 | 63 | 1012.0 |
| 20260509035355 | 53 | 174 | 0.0 | 2.0 | 0.00 | 0.00 | 0.00 | 63 | 1012.1 |
| 20260509034854 | 53 | 174 | 0.0 | 2.0 | 0.00 | 0.00 | 0.00 | 62 | 1012.1 |
| 20260509034355 | 53 | 174 | 1.0 | 4.0 | 0.00 | 0.00 | 0.00 | 63 | 1012.1 |
| 20260509033853 | 53 | 174 | 0.0 | 4.0 | 0.00 | 0.00 | 0.00 | 64 | 1012.1 |
| 20260509033354 | 53 | 174 | 0.0 | 2.0 | 0.00 | 0.00 | 0.00 | 63 | 1012.3 |
| 20260509032854 | 53 | 174 | 0.0 | 2.0 | 0.00 | 0.00 | 0.00 | 65 | 1012.2 |
| 20260509032354 | 53 | 174 | 0.0 | 0.0 | 0.00 | 0.00 | 0.00 | 66 | 1012.2 |
| 20260509031854 | 54 | 174 | 0.0 | 1.0 | 0.00 | 0.00 | 0.00 | 65 | 1012.3 |
| 20260509031353 | 54 | 174 | 0.0 | 2.0 | 0.00 | 0.00 | 0.00 | 65 | 1012.2 |
| 20260509030849 | 54 | 174 | 0.0 | 2.0 | 0.00 | 0.00 | 0.00 | 63 | 1012.2 |
| 20260509030347 | 54 | 174 | 0.0 | 1.0 | 0.00 | 0.00 | 0.00 | 63 | 1012.2 |
| 20260509025846 | 54 | 174 | 0.0 | 1.0 | 0.00 | 0.00 | 0.00 | 65 | 1012.2 |
| 20260509025344 | 54 | 174 | 1.0 | 4.0 | 0.00 | 0.00 | 0.00 | 68 | 1012.3 |
| 20260509024843 | 54 | 174 | 1.0 | 4.0 | 0.00 | 0.00 | 0.00 | 64 | 1012.4 |
| 20260509024344 | 54 | 174 | 0.0 | 2.0 | 0.00 | 0.00 | 0.00 | 66 | 1012.4 |
| 20260509023844 | 54 | 174 | 0.0 | 0.0 | 0.00 | 0.00 | 0.00 | 64 | 1012.5 |
| 20260509023344 | 54 | 174 | 0.0 | 2.0 | 0.00 | 0.00 | 0.00 | 65 | 1012.5 |
| 20260509022841 | 54 | 174 | 0.0 | 2.0 | 0.00 | 0.00 | 0.00 | 64 | 1012.5 |
| 20260509022332 | 54 | 174 | 0.0 | 2.0 | 0.00 | 0.00 | 0.00 | 66 | 1012.6 |
| 20260509021834 | 55 | 174 | 1.0 | 2.0 | 0.00 | 0.00 | 0.00 | 65 | 1012.6 |
| 20260509021333 | 55 | 174 | 1.0 | 2.0 | 0.00 | 0.00 | 0.00 | 65 | 1012.7 |
| 20260509020833 | 55 | 174 | 0.0 | 1.0 | 0.00 | 0.00 | 0.00 | 65 | 1012.7 |
| 20260509020335 | 55 | 174 | 0.0 | 2.0 | 0.00 | 0.00 | 0.00 | 64 | 1012.6 |
| 20260509015832 | 55 | 174 | 0.0 | 2.0 | 0.00 | 0.00 | 0.00 | 64 | 1012.4 |
| 20260509015331 | 55 | 174 | 1.0 | 2.0 | 0.00 | 0.00 | 0.00 | 61 | 1012.4 |
| 20260509014832 | 55 | 174 | 2.0 | 2.0 | 0.00 | 0.00 | 0.00 | 62 | 1012.4 |
| 20260509014332 | 55 | 174 | 2.0 | 4.0 | 0.00 | 0.00 | 0.00 | 63 | 1012.3 |
| 20260509013832 | 55 | 174 | 3.0 | 4.0 | 0.00 | 0.00 | 0.00 | 66 | 1012.3 |
| 20260509013332 | 55 | 174 | 2.0 | 4.0 | 0.00 | 0.00 | 0.00 | 67 | 1012.3 |
| 20260509012835 | 55 | 174 | 2.0 | 4.0 | 0.00 | 0.00 | 0.00 | 66 | 1012.3 |
| 20260509012332 | 55 | 174 | 3.0 | 4.0 | 0.00 | 0.00 | 0.00 | 66 | 1012.3 |
| 20260509011835 | 56 | 174 | 2.0 | 5.0 | 0.00 | 0.00 | 0.00 | 66 | 1012.3 |
| 20260509011334 | 56 | 174 | 0.0 | 5.0 | 0.00 | 0.00 | 0.00 | 65 | 1012.2 |
| 20260509010836 | 56 | 178 | 1.0 | 4.0 | 0.00 | 0.00 | 0.00 | 63 | 1012.3 |
| 20260509010332 | 56 | 178 | 1.0 | 4.0 | 0.00 | 0.00 | 0.00 | 60 | 1012.4 |
| 20260509005834 | 57 | 172 | 0.0 | 2.0 | 0.00 | 0.00 | 0.00 | 61 | 1012.4 |
| 20260509005333 | 57 | 172 | 1.0 | 3.0 | 0.00 | 0.00 | 0.00 | 59 | 1012.4 |
| 20260509004834 | 57 | 170 | 2.0 | 5.0 | 0.00 | 0.00 | 0.00 | 59 | 1012.3 |
| 20260509004331 | 57 | 170 | 3.0 | 5.0 | 0.00 | 0.00 | 0.00 | 58 | 1012.3 |
| 20260509003829 | 57 | 170 | 3.0 | 5.0 | 0.00 | 0.00 | 0.00 | 58 | 1012.2 |
| 20260509003324 | 57 | 171 | 3.0 | 5.0 | 0.00 | 0.00 | 0.00 | 60 | 1012.3 |
| 20260509002825 | 58 | 213 | 3.0 | 4.0 | 0.00 | 0.00 | 0.00 | 58 | 1012.2 |
| 20260509002324 | 57 | 213 | 2.0 | 4.0 | 0.00 | 0.00 | 0.00 | 57 | 1012.2 |
| 20260509001823 | 58 | 215 | 1.0 | 4.0 | 0.00 | 0.00 | 0.00 | 57 | 1012.1 |
| 20260509001324 | 58 | 215 | 0.0 | 1.0 | 0.00 | 0.00 | 0.00 | 55 | 1012.0 |
| 20260509000821 | 58 | 215 | 1.0 | 3.0 | 0.00 | 0.00 | 0.00 | 55 | 1011.8 |
| 20260509000325 | 59 | 215 | 1.0 | 3.0 | 0.00 | 0.00 | 0.00 | 55 | 1012.0 |
| 20260508235818 | 59 | 294 | 1.0 | 3.0 | 0.00 | 0.00 | 0.00 | 53 | 1011.9 |
| 20260508235317 | 60 | 294 | 2.0 | 3.0 | 0.00 | 0.00 | 0.00 | 54 | 1011.7 |
| 20260508234814 | 60 | 296 | 2.0 | 3.0 | 0.00 | 0.00 | 0.00 | 54 | 1011.7 |
| 20260508234315 | 60 | 299 | 2.0 | 5.0 | 0.00 | 0.00 | 0.00 | 52 | 1011.6 |
| 20260508233817 | 60 | 299 | 2.0 | 7.0 | 0.00 | 0.00 | 0.00 | 52 | 1011.6 |
| 20260508233324 | 61 | 267 | 2.0 | 7.0 | 0.00 | 0.00 | 0.00 | 53 | 1011.7 |
| 20260508232810 | 61 | 303 | 2.0 | 7.0 | 0.00 | 0.00 | 0.00 | 52 | 1011.7 |
| 20260508232313 | 61 | 279 | 2.0 | 6.0 | 0.00 | 0.00 | 0.00 | 51 | 1011.7 |
| 20260508231806 | 62 | 274 | 3.0 | 6.0 | 0.00 | 0.00 | 0.00 | 51 | 1011.7 |
| 20260508231306 | 62 | 269 | 2.0 | 6.0 | 0.00 | 0.00 | 0.00 | 50 | 1011.6 |
| 20260508230806 | 62 | 274 | 3.0 | 6.0 | 0.00 | 0.00 | 0.00 | 54 | 1011.6 |
| 20260508230309 | 62 | 276 | 3.0 | 8.0 | 0.00 | 0.00 | 0.00 | 51 | 1011.6 |
| 20260508225811 | 61 | 249 | 2.0 | 8.0 | 0.00 | 0.00 | 0.00 | 53 | 1011.5 |
| 20260508225307 | 61 | 265 | 3.0 | 8.0 | 0.00 | 0.00 | 0.00 | 54 | 1011.5 |
| 20260508224806 | 61 | 269 | 3.0 | 8.0 | 0.00 | 0.00 | 0.00 | 51 | 1011.7 |
| 20260508224305 | 61 | 317 | 4.0 | 9.0 | 0.00 | 0.00 | 0.00 | 55 | 1011.7 |
| 20260508223808 | 61 | 282 | 4.0 | 11.0 | 0.00 | 0.00 | 0.00 | 54 | 1011.7 |
| 20260508223306 | 61 | 266 | 4.0 | 11.0 | 0.00 | 0.00 | 0.00 | 51 | 1011.7 |
| 20260508222807 | 61 | 276 | 3.0 | 8.0 | 0.00 | 0.00 | 0.00 | 52 | 1011.7 |
| 20260508222308 | 61 | 294 | 3.0 | 9.0 | 0.00 | 0.00 | 0.00 | 53 | 1011.7 |
| 20260508221806 | 61 | 266 | 4.0 | 14.0 | 0.00 | 0.00 | 0.00 | 52 | 1011.6 |
| 20260508221306 | 61 | 289 | 5.0 | 14.0 | 0.00 | 0.00 | 0.00 | 51 | 1011.7 |
| 20260508220809 | 61 | 286 | 5.0 | 11.0 | 0.00 | 0.00 | 0.00 | 50 | 1011.7 |
| 20260508220308 | 61 | 248 | 4.0 | 10.0 | 0.00 | 0.00 | 0.00 | 53 | 1011.6 |
| 20260508215800 | 61 | 275 | 4.0 | 11.0 | 0.00 | 0.00 | 0.00 | 54 | 1011.6 |
| 20260508215259 | 61 | 311 | 5.0 | 13.0 | 0.00 | 0.00 | 0.00 | 52 | 1011.6 |
| 20260508214759 | 62 | 302 | 6.0 | 13.0 | 0.00 | 0.00 | 0.00 | 52 | 1011.6 |
| 20260508214300 | 62 | 256 | 6.0 | 17.0 | 0.00 | 0.00 | 0.00 | 49 | 1011.6 |
| 20260508213803 | 62 | 283 | 6.0 | 17.0 | 0.00 | 0.00 | 0.00 | 49 | 1011.7 |
| 20260508213259 | 62 | 348 | 7.0 | 16.0 | 0.00 | 0.00 | 0.00 | 50 | 1011.5 |
| 20260508212801 | 62 | 236 | 7.0 | 16.0 | 0.00 | 0.00 | 0.00 | 48 | 1011.7 |
| 20260508212258 | 62 | 238 | 6.0 | 15.0 | 0.00 | 0.00 | 0.00 | 48 | 1011.7 |
| 20260508211759 | 62 | 262 | 6.0 | 15.0 | 0.00 | 0.00 | 0.00 | 50 | 1011.7 |
| 20260508211300 | 62 | 239 | 6.0 | 15.0 | 0.00 | 0.00 | 0.00 | 48 | 1011.7 |
| 20260508210801 | 62 | 252 | 6.0 | 15.0 | 0.00 | 0.00 | 0.00 | 47 | 1011.5 |
| 20260508210258 | 62 | 246 | 7.0 | 15.0 | 0.00 | 0.00 | 0.00 | 45 | 1011.6 |
| 20260508205800 | 62 | 269 | 5.0 | 14.0 | 0.00 | 0.00 | 0.00 | 51 | 1011.6 |
| 20260508205254 | 62 | 270 | 5.0 | 12.0 | 0.00 | 0.00 | 0.00 | 53 | 1011.7 |
| 20260508204756 | 62 | 248 | 4.0 | 12.0 | 0.00 | 0.00 | 0.00 | 50 | 1011.7 |
| 20260508204257 | 63 | 249 | 4.0 | 11.0 | 0.00 | 0.00 | 0.00 | 50 | 1011.7 |
| 20260508203756 | 63 | 265 | 5.0 | 13.0 | 0.00 | 0.00 | 0.00 | 48 | 1011.7 |
| 20260508203259 | 63 | 251 | 5.0 | 13.0 | 0.00 | 0.00 | 0.00 | 50 | 1011.8 |
| 20260508202756 | 63 | 238 | 6.0 | 13.0 | 0.00 | 0.00 | 0.00 | 49 | 1011.8 |
| 20260508202254 | 64 | 278 | 7.0 | 15.0 | 0.00 | 0.00 | 0.00 | 47 | 1011.9 |